Overview Statistics Trail Chart Weather Telemetry Raw packets
 

This is the latest recevied weather packets stored in our database for station/object K5GHS-1. If no packets are shown the sender has not sent any weather packets the latest 10 day(s).

<< 100 101 102 103 104 105 106 >>
Time Temp. Humidity Pressure Rain* Wind** Luminosity Snow
1787957548 39.44° C 31% 1012.6 hPa 0 mm - 240 W/m² -
1787957244 39.44° C 30% 1012.6 hPa 0 mm - 231 W/m² -
1787956939 39.44° C 31% 1012.7 hPa 0 mm - 281 W/m² -
1787956638 40° C 31% 1012.6 hPa 0 mm - 276 W/m² -
1787956333 39.44° C 31% 1012.7 hPa 0 mm - 333 W/m² -
1787956036 40° C 30% 1012.8 hPa 0 mm - 357 W/m² -
1787955724 40.56° C 30% 1012.6 hPa 0 mm - 368 W/m² -
1787955420 40.56° C 30% 1012.7 hPa 0 mm - 388 W/m² -
1787955118 40° C 31% 1012.7 hPa 0 mm - 384 W/m² -
1787954814 39.44° C 32% 1012.8 hPa 0 mm - 369 W/m² -
1787954510 38.89° C 32% 1012.8 hPa 0 mm - 398 W/m² -
1787954204 38.89° C 31% 1013 hPa 0 mm - 88 W/m² -
1787953904 38.89° C 31% 1013 hPa 0 mm - 96 W/m² -
1787953603 38.89° C 32% 1013.3 hPa 0 mm - 339 W/m² -
1787953298 38.33° C 32% 1013.4 hPa 0 mm - 417 W/m² -
1787952996 38.89° C 33% 1013.5 hPa 0 mm - 102 W/m² -
1787952696 39.44° C 31% 1013.6 hPa 0 mm - 206 W/m² -
1787952390 40° C 31% 1013.5 hPa 0 mm - 88 W/m² -
1787952086 40° C 30% 1013.4 hPa 0 mm - 465 W/m² -
1787951785 40° C 31% 1013.8 hPa 0 mm - 487 W/m² -
1787951481 40° C 31% 1014 hPa 0 mm - 484 W/m² -
1787951177 40.56° C 31% 1013.7 hPa 0 mm - 489 W/m² -
1787950873 40.56° C 30% 1014 hPa 0 mm - 488 W/m² -
1787950568 40° C 30% 1014.1 hPa 0 mm - 553 W/m² -
1787950264 40° C 33% 1014.4 hPa 0 mm - 611 W/m² -

* Rain latest hour (hover to see other rain measurements)
** Current wind speed in m/s (hover to see current wind gust speed)